• In Österreich
  • Länderverzeichnis
  • Für 7 Tage
  • Wassertemperatur
  • Satellitenkarten
  • Wetterkarte
  • News
  • Widgets
  • user-avatar
    Anmelden

    Stündliche Wetter Darwin

    Heute, 21 Oktober, Sonntag

    Zeit Temperatur Niederschläge Wind Luftdruck Luftfeuchtigkeit
    00:00 +31°C° 0.6 mm 2 m/S 758 mmHg 73%
    01:00 +30°C° 0.6 mm 2 m/S 758 mmHg 74%
    02:00 +30°C° 0.6 mm 2 m/S 758 mmHg 75%
    03:00 +30°C° 0 mm 2 m/S 758 mmHg 76%
    04:00 +29°C° 0 mm 2 m/S 758 mmHg 77%
    05:00 +29°C° 0 mm 2 m/S 759 mmHg 77%
    06:00 +29°C° 0 mm 2 m/S 759 mmHg 78%
    07:00 +31°C° 0 mm 2 m/S 759 mmHg 71%
    08:00 +32°C° 0 mm 2 m/S 759 mmHg 64%
    09:00 +35°C° 0 mm 2 m/S 760 mmHg 57%
    10:00 +36°C° 0 mm 2 m/S 759 mmHg 52%
    11:00 +37°C° 0 mm 3 m/S 759 mmHg 48%
    12:00 +38°C° 0 mm 3 m/S 758 mmHg 43%
    13:00 +38°C° 0.2 mm 3 m/S 758 mmHg 43%
    14:00 +38°C° 0.2 mm 3 m/S 757 mmHg 44%
    15:00 +37°C° 0 mm 4 m/S 757 mmHg 48%
    16:00 +36°C° 0.2 mm 4 m/S 757 mmHg 50%
    17:00 +35°C° 0.2 mm 4 m/S 757 mmHg 52%
    18:00 +35°C° 0.2 mm 4 m/S 757 mmHg 54%
    19:00 +34°C° 0 mm 4 m/S 757 mmHg 58%
    20:00 +33°C° 0 mm 4 m/S 757 mmHg 61%
    21:00 +33°C° 0 mm 3 m/S 758 mmHg 65%
    22:00 +31°C° 0 mm 3 m/S 758 mmHg 67%
    23:00 +31°C° 0 mm 3 m/S 758 mmHg 69%

    Morgen, 22 Oktober, Montag

    Zeit Temperatur Niederschläge Wind Luftdruck Luftfeuchtigkeit
    00:00 +31°C° 0 mm 2 m/S 758 mmHg 71%
    01:00 +30°C° 0.1 mm 2 m/S 758 mmHg 73%
    02:00 +30°C° 0.1 mm 2 m/S 757 mmHg 74%
    03:00 +30°C° 0.1 mm 2 m/S 757 mmHg 75%
    04:00 +30°C° 0 mm 2 m/S 758 mmHg 75%
    05:00 +29°C° 0 mm 1 m/S 758 mmHg 76%
    06:00 +29°C° 0 mm 1 m/S 758 mmHg 77%
    07:00 +32°C° 0.1 mm 1 m/S 758 mmHg 66%
    08:00 +34°C° 0.1 mm 1 m/S 758 mmHg 56%
    09:00 +36°C° 0.1 mm 1 m/S 759 mmHg 46%
    10:00 +39°C° 0 mm 1 m/S 758 mmHg 41%
    11:00 +40°C° 0 mm 2 m/S 758 mmHg 37%
    12:00 +42°C° 0 mm 3 m/S 757 mmHg 33%
    13:00 +40°C° 0 mm 3 m/S 757 mmHg 37%
    14:00 +38°C° 0 mm 4 m/S 756 mmHg 41%
    15:00 +37°C° 0 mm 4 m/S 756 mmHg 45%
    16:00 +36°C° 0 mm 4 m/S 756 mmHg 48%
    17:00 +36°C° 0 mm 4 m/S 756 mmHg 51%
    18:00 +35°C° 0 mm 4 m/S 756 mmHg 54%
    19:00 +34°C° 0.3 mm 4 m/S 756 mmHg 59%
    20:00 +33°C° 0.3 mm 4 m/S 757 mmHg 63%
    21:00 +32°C° 0.3 mm 4 m/S 757 mmHg 68%
    22:00 +32°C° 0.4 mm 4 m/S 757 mmHg 69%
    23:00 +32°C° 0.4 mm 4 m/S 758 mmHg 70%

    übermorgen, 23 Oktober, Dienstag

    Zeit Temperatur Niederschläge Wind Luftdruck Luftfeuchtigkeit
    00:00 +31°C° 0.4 mm 3 m/S 758 mmHg 71%
    01:00 +30°C° 0.7 mm 3 m/S 757 mmHg 72%
    02:00 +30°C° 0.7 mm 2 m/S 757 mmHg 73%
    03:00 +30°C° 0.7 mm 1 m/S 757 mmHg 74%
    04:00 +30°C° 0.2 mm 1 m/S 757 mmHg 73%
    05:00 +30°C° 0.2 mm 1 m/S 757 mmHg 73%
    06:00 +30°C° 0.2 mm 1 m/S 758 mmHg 72%
    07:00 +31°C° 0 mm 2 m/S 758 mmHg 65%
    08:00 +34°C° 0 mm 3 m/S 758 mmHg 58%
    09:00 +36°C° 0 mm 3 m/S 759 mmHg 51%
    10:00 +37°C° 0 mm 4 m/S 758 mmHg 48%
    11:00 +38°C° 0 mm 4 m/S 758 mmHg 44%
    12:00 +40°C° 0 mm 4 m/S 757 mmHg 40%
    13:00 +38°C° 0 mm 4 m/S 757 mmHg 42%
    14:00 +38°C° 0 mm 4 m/S 756 mmHg 43%
    15:00 +37°C° 0 mm 4 m/S 756 mmHg 44%
    16:00 +36°C° 0.1 mm 4 m/S 756 mmHg 48%
    17:00 +35°C° 0.1 mm 3 m/S 756 mmHg 52%
    18:00 +34°C° 0.1 mm 3 m/S 756 mmHg 56%
    19:00 +34°C° 0.1 mm 3 m/S 757 mmHg 59%
    20:00 +32°C° 0.1 mm 2 m/S 757 mmHg 61%
    21:00 +31°C° 0.1 mm 2 m/S 758 mmHg 64%
    22:00 +31°C° 0 mm 2 m/S 758 mmHg 65%
    23:00 +31°C° 0 mm 2 m/S 758 mmHg 66%

    24 Oktober, Mittwoch

    Zeit Temperatur Niederschläge Wind Luftdruck Luftfeuchtigkeit
    00:00 +31°C° 0 mm 1 m/S 758 mmHg 67%
    01:00 +30°C° 0 mm 2 m/S 758 mmHg 69%
    02:00 +30°C° 0 mm 2 m/S 757 mmHg 70%
    03:00 +30°C° 0 mm 2 m/S 757 mmHg 71%
    04:00 +30°C° 0 mm 2 m/S 757 mmHg 72%
    05:00 +30°C° 0 mm 2 m/S 758 mmHg 73%
    06:00 +29°C° 0 mm 2 m/S 758 mmHg 74%
    07:00 +31°C° 0 mm 2 m/S 758 mmHg 66%
    08:00 +34°C° 0 mm 2 m/S 759 mmHg 58%
    09:00 +36°C° 0 mm 3 m/S 759 mmHg 49%
    10:00 +38°C° 0 mm 3 m/S 758 mmHg 44%
    11:00 +39°C° 0 mm 3 m/S 758 mmHg 39%
    12:00 +42°C° 0 mm 4 m/S 758 mmHg 34%
    13:00 +41°C° 0 mm 4 m/S 757 mmHg 37%
    14:00 +40°C° 0 mm 4 m/S 756 mmHg 39%
    15:00 +39°C° 0 mm 5 m/S 756 mmHg 41%
    16:00 +36°C° 0.5 mm 5 m/S 756 mmHg 47%
    17:00 +35°C° 0.5 mm 5 m/S 756 mmHg 52%
    18:00 +34°C° 0.5 mm 5 m/S 757 mmHg 58%
    19:00 +33°C° 0.9 mm 4 m/S 757 mmHg 61%
    20:00 +32°C° 0.9 mm 2 m/S 758 mmHg 64%
    21:00 +31°C° 0.9 mm 1 m/S 759 mmHg 67%
    22:00 +31°C° 0.2 mm 2 m/S 759 mmHg 68%
    23:00 +30°C° 0.2 mm 2 m/S 759 mmHg 68%

    25 Oktober, Donnerstag

    Zeit Temperatur Niederschläge Wind Luftdruck Luftfeuchtigkeit
    00:00 +30°C° 0.2 mm 2 m/S 759 mmHg 69%
    01:00 +30°C° 0 mm 1 m/S 758 mmHg 70%
    02:00 +29°C° 0 mm 1 m/S 758 mmHg 70%
    03:00 +27°C° 0 mm 0 m/S 758 mmHg 71%
    04:00 +29°C° 0 mm 1 m/S 758 mmHg 72%
    05:00 +29°C° 0 mm 1 m/S 758 mmHg 72%
    06:00 +28°C° 0 mm 1 m/S 759 mmHg 73%
    07:00 +31°C° 0 mm 1 m/S 759 mmHg 64%
    08:00 +33°C° 0 mm 1 m/S 760 mmHg 55%
    09:00 +36°C° 0 mm 1 m/S 760 mmHg 47%
    10:00 +37°C° 0 mm 1 m/S 760 mmHg 42%
    11:00 +39°C° 0 mm 2 m/S 759 mmHg 37%
    12:00 +40°C° 0 mm 3 m/S 759 mmHg 33%
    13:00 +39°C° 0 mm 3 m/S 758 mmHg 34%
    14:00 +38°C° 0 mm 4 m/S 757 mmHg 35%
    15:00 +38°C° 0 mm 4 m/S 757 mmHg 36%
    16:00 +37°C° 0 mm 4 m/S 757 mmHg 38%
    17:00 +36°C° 0 mm 4 m/S 757 mmHg 40%
    18:00 +36°C° 0 mm 4 m/S 758 mmHg 42%
    19:00 +34°C° 0.1 mm 4 m/S 758 mmHg 49%
    20:00 +33°C° 0.1 mm 4 m/S 759 mmHg 55%
    21:00 +32°C° 0.1 mm 4 m/S 759 mmHg 62%
    22:00 +32°C° 0 mm 4 m/S 759 mmHg 64%
    23:00 +31°C° 0 mm 3 m/S 759 mmHg 66%

    26 Oktober, Freitag

    Zeit Temperatur Niederschläge Wind Luftdruck Luftfeuchtigkeit
    00:00 +31°C° 0 mm 3 m/S 759 mmHg 68%
    01:00 +30°C° 0.2 mm 3 m/S 759 mmHg 69%
    02:00 +30°C° 0.2 mm 2 m/S 759 mmHg 71%
    03:00 +29°C° 0.2 mm 2 m/S 758 mmHg 72%
    04:00 +29°C° 0 mm 1 m/S 759 mmHg 73%
    05:00 +29°C° 0 mm 1 m/S 759 mmHg 74%
    06:00 +29°C° 0 mm 1 m/S 759 mmHg 74%
    07:00 +31°C° 0 mm 1 m/S 760 mmHg 65%
    08:00 +33°C° 0 mm 1 m/S 760 mmHg 56%
    09:00 +35°C° 0 mm 1 m/S 760 mmHg 48%
    10:00 +38°C° 0 mm 2 m/S 760 mmHg 43%
    11:00 +39°C° 0 mm 2 m/S 759 mmHg 38%
    12:00 +41°C° 0 mm 2 m/S 758 mmHg 33%
    13:00 +39°C° 0 mm 3 m/S 758 mmHg 38%
    14:00 +37°C° 0 mm 4 m/S 757 mmHg 43%
    15:00 +36°C° 0 mm 4 m/S 756 mmHg 48%
    16:00 +35°C° 0.1 mm 3 m/S 757 mmHg 49%
    17:00 +35°C° 0.1 mm 3 m/S 757 mmHg 50%
    18:00 +35°C° 0.1 mm 2 m/S 757 mmHg 52%
    19:00 +34°C° 0 mm 3 m/S 758 mmHg 55%
    20:00 +33°C° 0 mm 3 m/S 758 mmHg 58%
    21:00 +33°C° 0 mm 4 m/S 759 mmHg 62%
    22:00 +31°C° 0 mm 3 m/S 758 mmHg 63%
    23:00 +31°C° 0 mm 3 m/S 758 mmHg 65%
    Mehr zeigen